Погода в Туре

Погода в Туре : погода сейчас, прогноз погоды и архив. Всё, что Вы хотите узнать о погоде в Туре!

Хотите узнать прогноз погоды в Туре? Тогда Вам сюда: Погода в Туре

Поиск расширенной информации на нашем сайте:

Другие новости

Новости СМИ2

Главная страница сайта

Новости сайта

03.07.2017

Напоминаем, что на нашем специализированном сайте Метеоцентр.Азия вы можете получить высокодетализированные автоматические прогнозы погоды по пунктам России, СНГ и мира в авиационном формате (включающие направление и скорость ветра, видимость, явления погоды, количество и форму облачности, нижнюю и верхнюю границу облачности).


Погода в Туре - сегодня

Время (UTC), дата Ветер
(°,м/с) 
Видим.   Явления Облачность Т
(°С)
Тd
(°С)
f(%) Тe
(°С)
Pmin
(гПа)
dP
(гПа)
Po
(мм)
O2
(г/м3)
Тmin Tmax R s Состояние
почвы
09 26.07.17 040 (СВ) 20000 м    10/6 600 м кучево-дожд., средняя 
[Cb cap|Ac As]
+26.4 +15.2 50 +36  1000.3  -1.7  734  267           
12 26.07.17 360 (С) 10 км  дым{ливн. осадки}  8/3 600 м кучево-дожд., средняя, верхняя 
[Cb cap|Ac trans|Ci fib]
+22.9 +12.2 51 +28  1001  0.5  735  271    +27.7  0.6     
15 26.07.17 120 (ЮВ) 10 км  дым  8/5 600 м кучево-дожд., средняя 
[Cb cap|Ac trans]
+20.4 +11.8 58 +24  1002.3  735  273           
18 26.07.17 010 (С) н/о  дым  8/4 1000 м средняя 
[Sc|Ac trans]
+14 +10.2 78 +16  1003.4  0.6  736  280           
21 26.07.17 360 (С) 20000 м    4/0 средняя, верхняя 
[Ac trans|Ci fib]
+13.2 +10.5 84 +15  1004.7  1.3  737  281           
00 27.07.17 360 (С) 20000 м    10/10 600 м кучево-дожд. 
[Cb cap]
+14.2 +11.6 84 +19  1006.2  1.5  738  280  +12.6         
03 27.07.17 350 (С) 20000 м    10/10 600 м кучево-дожд. 
[Cb cap]
+14.7 +10.7 77 +17  1006.7  0.5  738  280           
06 27.07.17 350 (С) 20000 м    10/10 600 м кучево-дожд. 
[Cb cap]
+17.2 +10.9 66 +21  1007  0.5  739  278           
09 27.07.17 030 (СВ) 20000 м    10/10 1000 м 
[Sc]
+18.4 +10.2 59 +21  1007.1  0.2  739  277           
12 27.07.17 050 (СВ) 20000 м    10/10 600 м кучево-дожд. 
[Cb cap]
+15.7 +9.3 66 +17  1008.8  1.5  740  280    +18.7       
15 27.07.17 060 (СВ) 20000 м    8/3 1000 м средняя, верхняя 
[Sc|Ac trans|Ci fib]
+13.6 +9.1 74 +14  1009.8  0.8  740  283           
18 27.07.17 020 (С) н/о    8/8 600 м кучево-дожд. 
[Cb cap]
+12.6 +7.9 73 +13  1010.7  0.7  741  284           
21 27.07.17 320 (СЗ) 20000 м    8/8 600 м кучево-дожд. 
[Cb cap]
+10.9 +6.9 76 +12  1012.2  1.3  742  286           
00 28.07.17 010 (С) 20000 м    3/1 1000 м средняя 
[Sc|Ac trans]
+12.1 +5.7 65 +12  1012.9  0.8  743  286  +10.3         
03 28.07.17 040 (СВ) 20000 м    3/0 средняя, верхняя 
[Ac trans|Ci fib]
+15.8 +6.4 54 +16  1012  -0.6  742  282           
06 28.07.17 070 (В) 20000 м    3/0 верхняя 
[Ci fib]
+19.2 +4.5 38 +20  1011.5  -0.2  742  279           
09 28.07.17 130 (ЮВ) 20000 м    8/3 1000 м средняя, верхняя 
[Sc|Ac trans|Ci sp]
+20.4 +3.1 32 +20  1010.7  -0.8  741  277           
12 28.07.17 130 (ЮВ) 20000 м    6/3 1000 м верхняя 
[Sc|Ci sp]
+20.2 +3.7 34 +20  1010.6  -0.1  741  278    +21.6       
15 28.07.17 130 (ЮВ) 20000 м    6/4 1000 м средняя, верхняя 
[Sc|Ac trans|Cc]
+14.8 +6.8 59 +16  1011.2  0.3  742  282           
18 28.07.17 100 (В) н/о    10/10 600 м кучево-дожд. 
[Cb cap]
+15 +9.8 71 +17  1011  -0.2  741  281           
21 28.07.17 100 (В) 20000 м    10/10 600 м кучево-дожд. 
[Cb cap]
+14.2 +10 76 +15  1010.5  -0.5  741  282           
00 29.07.17 120 (ЮВ) 20000 м    10/10 600 м кучево-дожд. 
[Cb cap]
+13.8 +9.9 77 +14  1009.8  -0.7  740  282  +13.5         
03 29.07.17 110 (В) 4{10}  20000 м    10/10 600 м кучево-дожд. 
[Cb cap]
+14.9 +10.8 76 +18  1008.1  -1.6  739  280           
06 29.07.17 130 (ЮВ) 20000 м    10/10 600 м кучево-дожд. 
[Cb cap]
+18.1 +11.8 67 +22  1005.6  -2.2  738  276           
09 29.07.17 100 (В) 10 км  слаб. ливневой дождь  10/10 600 м кучево-дожд. 
[Cb cap]
+16.2 +14.5 90 +25  1004  -1.7  736  277           
Время (UTC), дата Ветер
(°,м/с) 
Видим.   Явления Облачность Т
(°С)
Тd
(°С)
f(%) Тe
(°С)
Pmin
(гПа)
dP
(гПа)
Po
(мм)
O2
(г/м3)
Тmin Tmax R s Состояние
почвы

Для получения пояснительной информации подведите курсор к названию столбца.

ПОГОДА в Туре - архив

Всё, что Вы хотите узнать о погоде в Туре - удобно и подробно!

Выберите нужную дату (начиная с 1 января 2015* года) и нажмите кнопку "Найти".
Будут отображены архивные сводки погоды по пункту Тура, начиная с указанной даты.


Отображать данные в формате CSV (для использования в таблицах Excel)


Внимание! Наш архив погоды предназначен исключительно для личного некоммерческого использования в познавательных целях. Если Вам необходимы официальные справки о состоянии погоды (для производственных, юридических, коммерческих и т.п. целей), обращайтесь в органы Росгидромета.

*Примечание: данная дата относится к архиву по метеостанциям СССР (Россия, СНГ, Балтия).
Архив по метеостанциям Зарубежной Европы и Азии (кроме Китая) хранится 10 дней, по другим регионам земного шара (Китай, Африка, Америка, Австралия, Океания) - 1 день.

Тура - район местоположения метеостанции


Название, широта, долгота, высота метеостанции:
Тура 64.3°ш. 100.2°д. 168 м над ур. моря [Российская Федерация]

Дополнительная информация

В oтличие oт бoльшинства пoгoдных сайтoв мы публикуем пoдрoбную метеoинфoрмацию в детальнoм прoфессиoнальнoм фoрмате.

Характеристики температуры и влажнoсти вoздуха измеряются на высoте 2 м в тени вдали oт зданий и деревьев.
Скoрoсть ветра измеряется на высoте 10 м (на урoвне рoста челoвека скoрoсть ветра ниже в 1.5-2 раза). Если метеoстанция нахoдится в гoрoде или в лесу, тo скoрoсть ветра занижена на 2-4 м/с пo сравнению с oткрытым местoм. Скoрoсть ветра над акватoриями крупных рек и oзёр, а также на вершинах хoлмoв на 2-5 м/с выше, чем в oбычных услoвиях.
Атмoсфернoе давление в разных тoчках местнoсти мoжет значительнo oтличаться oт давления на метеoстанции, в зависимoсти oт услoвий рельефа (при пoдъёме на 10 м давление пoнижается примернo на 1 мм рт.ст.).